Simultaneous Nadir Overpasses (SNOs) Predictions

Prediction of SNOs between GOES-15 and TERRA Satellite Orbit:

Table of predicted SNOs for the next 14.0 days since TLE Epoch: 10/25/2014
Index Date Time (GOES-15) GOES-15 Lat,Lon TERRA Lat,Lon Distance(km) Time Diff (sec)
1 10/25/2014 19:31:32 -0.30,-135.22 -0.18,-135.69 53.25 80
2 10/27/2014 19:21:58 -0.30,-135.17 -0.79,-132.72 278.67 80
3 10/28/2014 07:43:22 0.28,-135.12 -0.30,-137.91 317.23 80
4 10/30/2014 07:28:27 0.28,-135.06 0.28,-134.93 14.06 80
5 11/01/2014 07:16:13 0.28,-135.00 0.94,-131.97 344.41 80
6 11/01/2014 19:37:27 -0.27,-135.02 0.19,-137.12 238.86 80
7 11/03/2014 19:27:52 -0.27,-134.95 -0.44,-134.15 91.55 80
8 11/05/2014 19:15:36 -0.27,-134.88 -1.03,-131.17 421.63 80
9 11/06/2014 07:36:59
